TimeCST,TemperatureF,Dew PointF,Humidity,Sea Level PressureIn,VisibilityMPH,Wind Direction,Wind SpeedMPH,Gust SpeedMPH,PrecipitationIn,Events,Conditions,WindDirDegrees,DateUTC
12:53 AM,37.9,34.0,86,30.45,10.0,North,3.5,-,N/A,,Clear,350,2013-01-18 06:53:00
1:53 AM,37.0,34.0,89,30.46,10.0,North,5.8,-,N/A,,Clear,350,2013-01-18 07:53:00
2:53 AM,37.0,34.0,89,30.47,10.0,North,8.1,-,N/A,,Clear,360,2013-01-18 08:53:00
3:53 AM,37.0,34.0,89,30.48,10.0,NNE,8.1,-,N/A,,Clear,20,2013-01-18 09:53:00
4:53 AM,35.1,33.1,92,30.49,9.0,North,5.8,-,N/A,,Clear,10,2013-01-18 10:53:00
5:53 AM,35.1,32.0,89,30.49,8.0,North,6.9,-,N/A,,Clear,10,2013-01-18 11:53:00
6:53 AM,34.0,32.0,92,30.50,7.0,NNE,6.9,-,N/A,,Clear,20,2013-01-18 12:53:00
7:53 AM,35.1,32.0,89,30.52,6.0,NNE,6.9,-,N/A,,Clear,30,2013-01-18 13:53:00
8:53 AM,39.0,33.1,79,30.54,9.0,NE,4.6,-,N/A,,Clear,50,2013-01-18 14:53:00
9:53 AM,44.1,33.1,65,30.55,10.0,ENE,10.4,-,N/A,,Clear,70,2013-01-18 15:53:00
10:53 AM,48.9,28.0,44,30.52,10.0,ENE,4.6,-,N/A,,Clear,60,2013-01-18 16:53:00
11:53 AM,53.1,26.1,35,30.48,10.0,ENE,9.2,-,N/A,,Clear,70,2013-01-18 17:53:00
12:53 PM,55.0,26.1,33,30.44,10.0,East,6.9,-,N/A,,Clear,80,2013-01-18 18:53:00
1:53 PM,55.9,25.0,30,30.42,10.0,Variable,3.5,-,N/A,,Clear,0,2013-01-18 19:53:00
2:53 PM,57.0,23.0,27,30.41,10.0,ENE,4.6,-,N/A,,Clear,70,2013-01-18 20:53:00
3:53 PM,57.9,25.0,28,30.40,10.0,NNE,3.5,-,N/A,,Clear,20,2013-01-18 21:53:00
4:53 PM,55.9,26.1,32,30.40,10.0,Calm,Calm,-,N/A,,Clear,0,2013-01-18 22:53:00
5:53 PM,48.0,32.0,54,30.40,10.0,Calm,Calm,-,N/A,,Clear,0,2013-01-18 23:53:00
6:53 PM,43.0,35.1,74,30.41,10.0,Calm,Calm,-,N/A,,Clear,0,2013-01-19 00:53:00
7:53 PM,37.9,34.0,86,30.42,10.0,Calm,Calm,-,N/A,,Clear,0,2013-01-19 01:53:00
8:53 PM,37.0,33.1,86,30.41,10.0,Calm,Calm,-,N/A,,Clear,0,2013-01-19 02:53:00
9:53 PM,33.1,30.9,92,30.42,10.0,Calm,Calm,-,N/A,,Clear,0,2013-01-19 03:53:00
10:53 PM,34.0,32.0,92,30.40,10.0,Calm,Calm,-,N/A,,Clear,0,2013-01-19 04:53:00
11:53 PM,34.0,32.0,92,30.40,10.0,Calm,Calm,-,N/A,,Clear,0,2013-01-19 05:53:00